Flag for Senegal Weather past 2 weeks in Thiès, Senegal

77 °F


Feels Like: 79 °F
Forecast: N/A
Wind: 10 mph from North

Location: Dakar / Yoff

Current Time: Nov 28, 2015 at 10:16:23 PM

Latest Report: Nov 28, 2015 at 9:00 PM

Visibility: 6 mi

Pressure: 29.92 "Hg

Humidity: 74%

Dew point: 68 °F

Location of ThièsLocation

Historic Weather in Thiès — Graph


Thiès temperature yesterday

Maximum temperature yesterday: 81 °F (at 1:00 PM)
Minimum temperature yesterday: 73 °F (at 8:00 PM)
Average temperature yesterday: 77 °F

Past Weeks' High & Low Weather Summary

High95 °F (Nov 15, 2:00 PM)94% (Nov 15, 5:00 AM)29.98 "Hg (Nov 15, 5:00 AM)
Low73 °F (Nov 16, 1:00 AM)16% (Nov 16, 11:30 AM)29.77 "Hg (Nov 18, 3:00 PM)
Average80 °F58%29.88 "Hg
* Reported Nov 13 9:00 PM — Nov 28 9:00 PM, Thiès, Weather by CustomWeather, © 2015

Note: Actual official high and low records may vary slightly from our data, if they occured in-between our weather recording intervals... More about our weather records


Thiès weather history for previous 24 hours

Time TempWeatherWind HumidityBarometerVisibility
9:00 PM
Sat, Nov 28
77 °FClear.10 mph74%29.92 "Hg6 mi
8:30 PM77 °FClear.10 mph74%29.92 "Hg6 mi
8:00 PM77 °FClear.10 mph74%29.89 "Hg6 mi
7:30 PM77 °FClear.10 mph74%29.89 "Hg6 mi
7:00 PM77 °FClear.10 mph74%29.86 "Hg6 mi
6:30 PM77 °FClear.10 mph69%29.86 "Hg6 mi
6:00 PM79 °FClear.10 mph61%29.86 "Hg6 mi
5:30 PM79 °FClear.12 mph61%29.86 "Hg6 mi
5:00 PM81 °FClear.9 mph58%29.86 "Hg5 mi
4:30 PM82 °FClear.9 mph48%29.86 "Hg5 mi
4:00 PM82 °FClear.8 mph51%29.83 "Hg5 mi
3:30 PM82 °FClear.8 mph51%29.83 "Hg5 mi
3:00 PM84 °FClear.9 mph48%29.86 "Hg5 mi
2:30 PM82 °FClear.10 mph51%29.86 "Hg5 mi
2:00 PM84 °FClear.8 mph40%29.86 "Hg5 mi
1:30 PM84 °FClear.7 mph40%29.89 "Hg5 mi
1:00 PM84 °FClear.6 mph40%29.89 "Hg5 mi
12:30 PM84 °FClear.8 mph43%29.92 "Hg5 mi
12:00 PM82 °FClear.8 mph42%29.92 "Hg5 mi
11:30 AM82 °FClear.8 mph42%29.92 "Hg5 mi
11:00 AM84 °FClear.8 mph35%29.92 "Hg5 mi
10:30 AM82 °FClear.9 mph40%29.92 "Hg5 mi
10:00 AM79 °FClear.9 mph51%29.92 "Hg5 mi
9:30 AM77 °FClear.12 mph57%29.92 "Hg5 mi
9:00 AM77 °FClear.12 mph61%29.92 "Hg5 mi
8:30 AM75 °FClear.10 mph65%29.92 "Hg5 mi
8:00 AM75 °FClear.9 mph61%29.89 "Hg5 mi
7:30 AM75 °FClear.10 mph65%29.89 "Hg5 mi
7:00 AM75 °FClear.10 mph65%29.89 "Hg5 mi
6:30 AM75 °FClear.10 mph69%29.86 "Hg6 mi
6:00 AM75 °FClear.10 mph69%29.89 "Hg6 mi
5:30 AM75 °FClear.13 mph69%29.89 "Hg6 mi
5:00 AM75 °FClear.9 mph74%29.86 "Hg6 mi
4:30 AM75 °FClear.8 mph74%29.86 "Hg6 mi
4:00 AM75 °FClear.7 mph74%29.86 "Hg6 mi
3:30 AM75 °FClear.7 mph83%29.86 "Hg6 mi
3:00 AM75 °FClear.6 mph78%29.89 "Hg6 mi
2:30 AM75 °FClear.7 mph78%29.89 "Hg6 mi
2:00 AM75 °FClear.7 mph78%29.89 "Hg6 mi
1:30 AM75 °FClear.6 mph78%29.89 "Hg5 mi
12:00 AM75 °FClear.7 mph78%29.92 "Hg5 mi
11:30 PM
Fri, Nov 27
75 °FClear.7 mph78%29.92 "Hg5 mi
11:00 PM75 °FClear.6 mph78%29.92 "Hg5 mi
10:30 PM75 °FClear.8 mph78%29.92 "Hg5 mi
10:00 PM75 °FClear.6 mph78%29.92 "Hg5 mi
Weather by CustomWeather, © 2015

See weather overviewHow to use our weather pages